Dewpoint
47 42 39 41 40 35 34 34 34 32 30 28 27 28 28 29 30 30 31 32 32 33 34 36 36 35 35 35 35 41 55 60 64 64 64 63 63 63 61 61 59 57 56 53
43 39 40 41 41 38 37 34 30 29 30 28 27 27 27 28 28 28 29 29 30 31 31 33 34 36 36 37 35 35 44 56 61 64 64 64 63 62 62 62 60 58 55 52
36 35 37 37 37 37 32 29 28 28 29 28 27 22 23 26 27 27 27 29 29 30 30 30 32 33 34 35 37 39 39 48 58 62 62 59 58 58 58 59 59 57 55 54
34 34 34 35 33 30 28 30 30 29 27 23 27 21 25 25 25 24 22 27 29 29 29 29 29 31 31 32 34 38 40 42 50 57 61 60 59 59 60 60 57 53 52 54
33 33 31 30 31 31 29 31 29 29 27 24 25 23 22 24 21 20 21 21 23 25 29 29 29 30 31 31 31 33 37 41 44 48 58 60 59 60 54 52 53 51 52 52
32 34 33 31 32 31 31 28 28 29 25 17 22 23 19 18 18 20 20 21 22 23 25 27 29 35 37 37 35 34 37 40 43 46 52 58 59 53 52 51 49 49 49 49
33 32 33 33 31 32 29 25 17 14 13 15 23 24 23 23 23 21 21 22 22 24 25 32 37 39 41 41 40 40 38 38 40 45 51 56 58 54 53 51 50 47 45 44
27 22 30 32 31 30 29 25 18 11 17 19 23 21 19 23 23 22 22 23 22 22 27 36 38 39 38 39 40 41 42 41 40 42 52 57 56 55 53 52 50 48 46 45
24 25 33 32 32 31 29 24 27 21 20 15 20 20 18 20 21 22 24 26 30 25 32 36 37 38 39 39 40 42 43 43 40 43 55 55 54 53 50 48 47 46 45 43
30 25 32 33 33 34 28 29 22 17 9 12 17 18 15 18 21 23 24 28 32 35 36 37 38 38 39 41 42 43 44 43 41 51 54 51 51 51 49 46 45 45 42 40
30 28 29 33 29 28 31 28 27 25 22 17 16 19 22 20 23 24 26 27 30 33 33 33 37 39 41 41 41 43 47 46 49 52 49 48 48 47 46 45 43 42 40 37
31 29 20 28 29 30 29 28 26 17 13 20 21 22 25 25 25 26 28 31 35 36 39 40 36 39 40 41 42 46 49 48 50 48 47 46 44 44 44 42 41 39 36 34
30 25 17 23 26 29 28 29 28 27 29 16 20 20 24 25 26 29 34 38 40 41 40 40 36 40 41 42 46 47 46 46 45 43 42 42 42 43 41 39 36 31 31 27
34 28 22 20 20 26 22 28 29 28 26 22 23 23 25 26 29 34 39 41 41 40 40 38 39 41 42 45 41 38 36 37 38 39 40 39 40 39 37 33 27 26 25 26
30 23 25 27 29 27 27 28 29 24 27 23 24 26 29 31 33 38 42 41 41 41 41 42 42 43 41 38 36 36 36 36 37 38 35 33 30 30 28 27 26 27 28 29
32 21 26 24 28 29 27 28 28 28 28 29 29 29 31 34 39 42 40 40 39 41 42 41 42 39 35 34 32 34 36 38 41 38 34 31 31 32 26 25 28 28 29 29
31 27 24 21 26 27 25 28 29 29 31 30 31 35 37 38 41 39 39 36 33 31 37 41 40 32 30 29 30 31 31 33 30 29 30 29 27 28 29 31 32 33 33 33
31 30 27 20 25 19 31 33 32 29 32 36 37 38 38 40 43 38 37 30 27 26 36 41 31 26 25 27 27 29 31 32 32 32 30 31 30 32 33 33 33 33 33 33
35 33 28 22 22 25 29 33 34 33 32 36 37 37 37 43 42 39 36 26 26 24 25 25 26 25 25 26 27 27 29 31 32 32 32 33 34 34 34 34 34 34 34 33
37 37 31 26 24 22 27 32 37 37 32 37 36 36 38 41 37 37 35 26 26 26 27 27 27 29 30 30 30 30 31 31 32 34 35 37 36 35 35 35 34 32 30 25
35 34 29 28 25 28 30 31 39 30 31 37 37 36 41 39 39 35 35 32 31 30 29 30 31 32 34 34 33 33 34 34 36 37 36 36 36 35 34 32 29 23 16 14
31 29 29 30 28 23 31 37 35 35 37 37 36 38 38 38 35 32 37 36 34 34 34 34 35 35 36 35 35 34 32 34 35 33 33 31 30 30 26 21 18 14 13 13
30 31 30 31 29 31 31 36 37 36 36 35 35 38 38 36 33 30 34 36 36 35 36 36 36 36 36 36 35 32 33 33 32 31 27 21 19 18 18 17 16 13 12 11
33 34 34 32 33 33 33 35 36 37 35 34 35 39 37 35 32 28 27 34 35 36 36 35 34 34 33 34 34 33 32 30 23 19 19 19 18 17 16 16 15 13 13 13
35 36 35 34 35 36 36 36 36 36 34 35 36 40 39 34 32 29 26 27 26 26 25 22 22 22 24 23 23 24 22 19 18 18 19 19 18 16 16 16 16 16 14 11
35 33 32 30 35 35 35 37 36 34 33 34 35 34 34 32 31 29 26 23 21 19 18 16 16 16 15 16 16 17 18 18 17 16 16 16 16 15 15 16 17 22 20 20
Lifted_Index
1 1 1 2 2 3 4 5 5 5 5 6 6 6 6 5 6 6 6 6 6 6 6 6 7 7 7 7 6 5 4 1 -1 -2 -3 -3 -4 -4 -4 -3 -3 -3 -3 -3
1 2 2 2 2 3 4 5 5 5 5 5 6 6 6 6 6 7 7 7 7 7 7 7 7 7 6 6 6 6 5 2 -0 -2 -3 -3 -3 -3 -3 -3 -3 -3 -3 -3
2 2 2 2 3 3 4 5 4 4 4 5 5 5 5 6 6 7 7 7 7 8 7 8 7 7 7 6 6 6 5 4 1 -1 -2 -3 -3 -3 -3 -3 -3 -3 -3 -3
3 3 3 3 3 3 4 4 4 5 5 5 5 4 4 5 5 6 6 7 7 8 8 8 8 8 7 7 6 6 6 5 3 1 -1 -2 -2 -2 -2 -2 -3 -3 -3 -3
3 3 3 3 3 4 4 4 5 5 5 4 4 3 3 4 4 5 6 7 7 7 7 7 7 7 7 7 7 7 6 6 5 3 1 -1 -2 -2 -2 -2 -3 -3 -3 -3
3 3 4 4 4 4 4 4 4 4 4 3 3 3 3 4 4 5 6 7 7 7 7 7 7 7 7 7 7 7 7 6 6 5 3 1 -1 -1 -1 -2 -2 -2 -2 -2
3 3 4 4 4 5 5 4 3 2 2 2 2 3 3 4 5 6 7 7 7 8 8 8 8 7 7 7 7 7 7 7 7 6 5 3 1 -1 -1 -1 -2 -2 -2 -2
3 3 4 5 5 5 5 4 3 2 1 2 2 3 4 5 6 6 7 7 8 8 8 8 8 7 7 7 7 7 7 7 6 6 5 3 2 1 -0 -1 -1 -1 -1 -1
3 4 4 5 5 5 5 5 4 3 2 2 2 3 4 5 6 7 7 7 8 8 8 8 7 6 6 6 7 7 6 6 5 5 4 3 2 1 1 -0 -1 -1 -1 -1
4 4 4 5 5 6 6 5 5 4 2 1 1 2 3 5 6 7 7 7 8 8 7 7 6 6 5 5 6 6 5 4 4 4 3 2 2 1 0 -1 -1 -1 -1 -1
4 4 4 5 5 5 6 5 5 4 3 2 1 2 3 5 6 7 7 7 7 7 6 6 6 5 4 4 5 4 4 3 3 3 2 2 1 0 -1 -1 -1 -1 -1 -1
5 4 4 4 5 6 6 6 6 5 3 3 2 2 4 5 6 6 6 6 6 5 5 5 5 4 3 3 3 3 2 1 1 1 1 0 0 -1 -1 -1 -1 -1 -1 -1
5 4 3 3 4 5 6 6 6 5 4 3 2 3 4 5 5 5 5 5 5 5 4 4 3 3 2 1 1 1 1 0 -1 -1 -1 -1 -2 -2 -1 -1 -1 -1 -0 0
5 4 3 3 4 5 5 5 5 5 3 3 2 3 4 5 5 5 5 5 5 5 4 3 2 2 1 0 0 1 1 -1 -1 -2 -2 -2 -2 -2 -1 -0 -0 0 1 1
5 4 4 4 4 5 5 5 5 4 3 3 2 3 4 4 5 5 5 5 5 5 4 3 2 1 1 0 1 1 0 -0 -1 -2 -2 -2 -2 -1 -0 1 1 2 3 3
4 4 4 4 4 5 4 4 4 3 3 3 3 3 4 4 4 4 4 4 5 5 4 2 2 1 1 1 1 1 1 0 -1 -1 -1 -1 -1 -0 1 2 3 4 6 7
4 4 3 4 4 4 3 3 3 3 3 3 3 3 4 4 4 4 4 4 4 5 4 3 2 2 2 2 2 2 1 1 1 0 0 0 0 1 2 4 6 7 9 10
5 4 4 4 3 2 2 2 2 2 2 2 3 3 3 3 4 4 4 4 4 5 5 4 3 3 3 3 3 3 2 2 2 2 2 3 3 4 5 7 9 10 11 11
5 5 4 3 2 1 1 2 2 2 2 2 3 3 3 3 3 4 4 4 4 5 5 5 4 4 3 4 4 4 4 4 4 4 5 6 7 8 8 9 10 11 11 11
5 5 4 3 2 1 2 2 2 2 2 2 3 3 3 2 3 3 4 4 5 5 6 5 5 5 5 5 5 5 5 5 6 7 8 9 10 10 10 10 11 11 11 12
4 4 4 2 1 2 2 2 2 2 2 2 3 3 2 2 2 3 3 4 5 5 6 6 6 6 7 7 7 6 6 7 8 9 10 10 11 11 11 11 12 12 13 14
3 3 3 2 2 2 3 3 2 2 3 3 3 3 2 2 2 2 3 4 4 5 6 6 7 7 8 9 8 7 7 9 10 10 11 11 11 12 12 13 13 14 15 16
3 3 3 3 3 3 3 3 3 3 3 3 3 3 2 2 2 2 2 3 4 4 5 6 6 7 8 9 9 8 9 10 11 11 11 11 12 13 14 14 15 16 17 17
3 3 3 3 3 3 3 3 3 3 3 3 3 3 2 2 1 2 2 2 3 4 5 5 6 7 7 8 9 9 10 11 11 11 12 12 12 14 15 16 17 18 18 18
4 4 4 4 4 4 3 3 3 3 3 3 3 3 2 2 1 2 2 2 3 3 4 5 6 6 7 9 10 10 11 12 12 12 12 13 14 15 17 18 18 18 18 18
4 4 4 4 4 4 4 4 4 3 3 3 3 2 2 2 1 2 2 3 3 3 4 5 5 6 7 9 10 11 12 13 12 12 13 14 15 16 17 18 18 18 18 18